カタログに戻る

QIANFAN-143

運用中通信PO
NORAD 69089·PAYLOAD·🇨🇳 China

打ち上げ May 12, 2026 から Taiyuan Satellite Launch Center

Loading…

次のパス (今後24時間)

TLE

最新Source: Space-Track

元期: Sep 14, 2026, 14:10 UTC

1 69089U 26104S   26257.59088379  .00000101  00000-0  13797-3 0  9998
2 69089  88.9914 332.3235 0001981 106.1926 253.9443 13.51026711 17249

AllMySatでQIANFAN-143をリアルタイム追跡

Download on the App Store